Starlink 3088

operational
NORAD ID: 49163 Int'l Des: 2021-082 Owner: SPXS Country: US Constellation: starlink
LEOCIRCULAR

Über Starlink 3088

Beschreibung wird geladen...

Live-Position

3D-Globus wird geladen...

Nächste Überflüge

Höhenverlauf

Altitude vs Time

uPlot chart will show altitude changes over time

Zweizeiliger Elementsatz

1 49163U 21082AK 26063.03646292 -.00000467 00000-0 -32058-4 0 9996
2 49163 69.9983 289.4774 0002180 265.3984 94.6926 14.97528839246765
Epoch: 4. März 2026 • Age: 14 hours

Aktueller Status

Höhe 583.2 km
Geschwindigkeit 7.57 km/s
Subsatellitenpunkt -26.14°S, 88.06°W
Startdatum 14. Sept. 2021
Alter 4.4 years
Typ internet

Technische Details

Klassifizierung Payload
Masse 297.00 kg
Trockenmasse 275.00 kg
Gesamtmasse 297.00 kg
Länge 0.20 m
Durchmesser 2.80 m
Spannweite 9.00 m
Form Box + pan
Hersteller SPXS
Bus-Typ Starlink
Phasenstatus In Orbit
Besitzer/Staat SPXS/US

Große Konstellationen

Loading constellations...